User: anonymous   Login
Location: Unspecified
(0.0000°N, 0.0000°E)
Time: 09:33:48
(UTC+00:00)
Language:

Ajisai (EGP) Rocket - Orbit

View from above orbital plane
View from above orbital plane
View from above satellite
View from above satellite

Ground track
Ground track

The orbit data is extracted from the following two-line orbital elements,

1 16910U 86061C   17295.93106663 -.00000070 +00000-0 +19780-3 0  9992
2 16910 050.0039 197.8235 0072001 324.7092 118.7752 12.32572206404816
Epoch (UTC): 22 October 2017 22:20:44
Eccentricity: 0.0072001
inclination: 50.0039°
perigee height: 1481 km
apogee height: 1595 km
right ascension of ascending node: 197.8235°
argument of perigee: 324.7092°
revolutions per day: 12.32572206
mean anomaly at epoch: 118.7752°
orbit number at epoch: 40481

The dashed part of the orbit path shows where the satellite is in the earth's shadow,  

DLR